KX4O-13 Weather Reports


time (UTC)temp
F
wind
direction
speed
knots
gust
knots
rain 1hr
in
rain 24hr
in
rain mn
in
humidity
%
barometer
mb
20260510071545 49 15 0.9 1.7 0.00 0.00 0.00 94 1010.6
20260510071045 48 19 0.9 2.6 0.00 0.00 0.00 93 1010.6
20260510070545 49 355 0.9 1.7 0.00 0.00 0.00 93 1010.6
20260510070045 49 319 0.9 0.9 0.00 0.00 0.00 94 1010.7
20260510065545 49 277 0.0 1.7 0.00 0.00 0.00 94 1010.7
20260510065047 48 194 0.0 0.9 0.00 0.00 0.00 93 1010.7
20260510064545 48 190 0.0 0.9 0.00 0.00 0.00 93 1010.5
20260510064045 48 184 0.0 0.9 0.00 0.00 0.00 93 1010.3
20260510063545 48 171 0.0 1.7 0.00 0.00 0.00 93 1010.1
20260510063045 49 134 0.0 1.7 0.00 0.00 0.00 93 1010.1
20260510062545 49 135 0.9 1.7 0.00 0.00 0.00 93 1010.0
20260510062045 49 128 0.9 1.7 0.00 0.00 0.00 93 1010.1
20260510061545 50 150 0.9 1.7 0.00 0.00 0.00 93 1010.1
20260510061047 50 0 0.9 1.7 0.00 0.00 0.00 93 1010.1
20260510060545 50 0 1.7 1.7 0.00 0.00 0.00 93 1010.2
20260510060045 50 0 1.7 2.6 0.00 0.00 0.00 93 1010.2
20260510055545 51 331 0.9 3.5 0.00 0.00 0.00 93 1010.1
20260510055045 51 334 0.0 2.6 0.00 0.00 0.00 93 1010.1
20260510054545 51 284 0.0 1.7 0.00 0.00 0.00 93 1010.2
20260510054045 51 332 0.9 1.7 0.00 0.00 0.00 93 1010.2
20260510053545 51 329 1.7 4.3 0.00 0.00 0.00 93 1010.3
20260510053047 51 328 0.9 2.6 0.00 0.00 0.00 93 1010.3
20260510052545 50 325 0.9 2.6 0.00 0.00 0.00 93 1010.2
20260510052045 50 327 0.0 1.7 0.00 0.00 0.00 93 1010.2
20260510051545 50 323 0.0 1.7 0.00 0.00 0.00 93 1010.2
20260510051045 50 321 0.9 1.7 0.00 0.00 0.00 93 1010.3
20260510050545 50 327 0.0 2.6 0.00 0.00 0.00 93 1010.2
20260510050045 50 306 0.0 0.9 0.00 0.00 0.00 93 1010.1
20260510045545 49 281 0.0 0.9 0.00 0.00 0.00 92 1010.2
20260510045047 50 295 0.0 0.0 0.00 0.00 0.00 92 1010.4
20260510044545 50 296 0.0 0.0 0.00 0.00 0.00 91 1010.2
20260510044045 51 296 0.0 0.0 0.00 0.00 0.00 92 1010.2
20260510043545 51 295 0.0 0.0 0.00 0.00 0.00 92 1010.2
20260510043045 51 296 0.0 0.0 0.00 0.00 0.00 92 1010.2
20260510042545 51 295 0.0 1.7 0.00 0.00 0.00 91 1010.2
20260510042045 51 293 0.0 0.0 0.00 0.00 0.00 91 1010.3
20260510041545 51 274 0.0 0.9 0.00 0.00 0.00 91 1010.2
20260510041047 51 281 0.0 1.7 0.00 0.00 0.00 90 1010.2
20260510040545 51 281 0.0 1.7 0.00 0.00 0.00 90 1010.2
20260510040045 52 355 0.0 0.9 0.00 0.00 0.00 90 1010.1
20260510035545 52 355 0.0 0.0 0.00 0.00 0.00 90 1010.1
20260510035045 52 355 0.0 0.9 0.00 0.00 0.00 89 1010.0
20260510034545 52 355 0.0 0.9 0.00 0.00 0.00 89 1010.0
20260510034045 53 355 0.0 0.9 0.00 0.00 0.00 89 1010.0
20260510033545 53 355 0.0 0.0 0.00 0.00 0.00 88 1010.0
20260510033047 53 355 0.9 1.7 0.00 0.00 0.00 88 1009.9
20260510032545 54 355 0.9 1.7 0.00 0.00 0.00 88 1009.9
20260510032045 54 355 0.0 0.9 0.00 0.00 0.00 89 1009.8
20260510031545 54 355 0.0 1.7 0.00 0.00 0.00 88 1009.8
20260510031047 54 355 0.9 1.7 0.00 0.00 0.00 88 1009.8
20260510030545 55 355 0.9 0.9 0.00 0.00 0.00 87 1009.7
20260510030045 55 355 0.0 1.7 0.00 0.00 0.00 87 1009.8
20260510025545 54 103 0.0 0.0 0.00 0.00 0.00 86 1009.8
20260510025045 55 103 0.0 1.7 0.00 0.00 0.00 86 1009.7
20260510024545 55 103 0.0 0.0 0.00 0.00 0.00 85 1009.8
20260510024045 55 103 0.0 1.7 0.00 0.00 0.00 85 1009.8
20260510023545 55 103 0.0 1.7 0.00 0.00 0.00 85 1009.8
20260510023047 56 103 0.0 0.9 0.00 0.00 0.00 85 1009.6
20260510022545 56 103 0.0 0.9 0.00 0.00 0.00 85 1009.7
20260510022045 55 103 0.0 0.9 0.00 0.00 0.00 85 1009.6
20260510021545 55 103 0.0 0.9 0.00 0.00 0.00 86 1009.6
20260510021045 55 103 0.0 1.7 0.00 0.00 0.00 84 1009.6
20260510020545 56 103 0.0 0.0 0.00 0.00 0.00 84 1009.5
20260510020045 56 103 0.0 0.0 0.00 0.00 0.00 83 1009.4
20260510015545 57 103 0.0 0.0 0.00 0.00 0.00 82 1009.3
20260510015048 57 103 0.9 1.7 0.00 0.00 0.00 81 1009.3
20260510014546 58 103 0.9 0.9 0.00 0.00 0.00 80 1009.1
20260510014046 58 103 0.0 0.9 0.00 0.00 0.00 80 1009.1
20260510013546 58 103 0.0 0.0 0.00 0.00 0.00 80 1009.1
20260510013045 58 103 0.0 0.0 0.00 0.00 0.00 79 1009.0
20260510012546 59 103 0.0 0.0 0.00 0.00 0.00 80 1008.9
20260510012046 58 103 0.0 0.0 0.00 0.00 0.00 79 1008.9
20260510011546 58 103 0.0 1.7 0.00 0.00 0.00 80 1008.8
20260510011048 58 103 0.0 0.0 0.00 0.00 0.00 80 1008.7
20260510010546 58 103 0.0 0.0 0.00 0.00 0.00 79 1008.6
20260510010046 59 103 0.0 0.0 0.00 0.00 0.00 77 1008.4
20260510005546 60 103 0.0 0.0 0.00 0.00 0.00 76 1008.4
20260510005046 60 103 0.0 0.0 0.00 0.00 0.00 75 1008.4
20260510004546 61 103 0.0 0.0 0.00 0.00 0.00 74 1008.3
20260510004046 61 103 0.0 0.9 0.00 0.00 0.00 75 1008.2
20260510003546 61 103 0.0 1.7 0.00 0.00 0.00 75 1008.2
20260510003048 61 103 0.0 0.0 0.00 0.00 0.00 77 1008.2
20260510002546 61 103 0.0 1.7 0.00 0.00 0.00 76 1008.1
20260510002046 61 103 0.0 1.7 0.00 0.00 0.00 74 1008.1
20260510001546 63 350 0.0 1.7 0.00 0.00 0.00 72 1008.1
20260510001046 63 350 0.0 0.9 0.00 0.00 0.00 71 1008.0
20260510000546 64 350 0.0 1.7 0.00 0.00 0.00 70 1008.0
20260510000046 64 350 0.9 0.9 0.00 0.00 0.00 69 1008.0
20260509235546 65 346 0.0 0.9 0.00 0.00 0.00 68 1008.1
20260509235048 65 90 0.0 0.0 0.00 0.00 0.00 68 1007.9
20260509234546 66 184 0.0 0.0 0.00 0.00 0.00 67 1007.8
20260509234046 67 184 0.0 0.0 0.00 0.00 0.00 62 1007.8
20260509233546 68 184 0.0 0.0 0.00 0.00 0.00 62 1007.9
20260509233046 69 184 0.0 1.7 0.00 0.00 0.00 54 1007.8
20260509232546 70 184 0.0 0.9 0.00 0.00 0.00 54 1007.7
20260509232046 71 184 0.9 1.7 0.00 0.00 0.00 50 1007.7
20260509231546 71 182 0.9 1.7 0.00 0.00 0.00 52 1007.6
20260509231048 71 185 0.9 1.7 0.00 0.00 0.00 53 1007.7
20260509230546 72 191 0.9 1.7 0.00 0.00 0.00 50 1007.7
20260509230046 72 177 0.9 2.6 0.00 0.00 0.00 50 1007.8
20260509225546 71 208 0.9 1.7 0.00 0.00 0.00 52 1007.6
20260509225046 71 152 0.9 2.6 0.00 0.00 0.00 54 1007.6
20260509224546 72 171 0.9 1.7 0.00 0.00 0.00 52 1007.7
20260509224046 72 190 0.9 3.5 0.00 0.00 0.00 49 1007.7
20260509223546 72 186 0.0 0.9 0.00 0.00 0.00 54 1007.6
20260509223048 72 155 0.0 1.7 0.00 0.00 0.00 54 1007.7
20260509222546 72 258 0.0 1.7 0.00 0.00 0.00 51 1007.7
20260509222046 73 258 0.9 1.7 0.00 0.00 0.00 50 1007.8
20260509221546 75 250 0.9 1.7 0.00 0.00 0.00 49 1007.7
20260509221048 75 269 0.0 1.7 0.00 0.00 0.00 50 1007.7
20260509220546 72 234 0.9 2.6 0.00 0.00 0.00 50 1007.7
20260509220046 72 250 1.7 2.6 0.00 0.00 0.00 52 1007.7
20260509215546 72 180 1.7 4.3 0.00 0.00 0.00 50 1007.7
20260509215046 73 229 0.9 2.6 0.00 0.00 0.00 49 1007.7
20260509214546 73 236 0.0 2.6 0.00 0.00 0.00 50 1007.6
20260509214046 72 192 0.0 2.6 0.00 0.00 0.00 55 1007.6
20260509213546 72 232 0.9 0.9 0.00 0.00 0.00 51 1007.6
20260509213048 72 185 0.9 2.6 0.00 0.00 0.00 51 1007.5
20260509212546 72 271 0.9 5.2 0.00 0.00 0.00 55 1007.5
20260509212046 72 240 0.9 1.7 0.00 0.00 0.00 53 1007.5
20260509211546 72 248 1.7 4.3 0.00 0.00 0.00 51 1007.4
20260509211046 72 267 0.9 3.5 0.00 0.00 0.00 49 1007.4
20260509210546 72 251 0.9 1.7 0.00 0.00 0.00 52 1007.5
20260509210046 72 211 0.9 1.7 0.00 0.00 0.00 54 1007.4
20260509205546 72 191 0.9 2.6 0.00 0.00 0.00 50 1007.5
20260509205048 72 198 0.9 2.6 0.00 0.00 0.00 48 1007.5
20260509204546 72 191 1.7 4.3 0.00 0.00 0.00 49 1007.5
20260509204046 72 196 0.9 5.2 0.00 0.00 0.00 48 1007.4
20260509203546 72 207 1.7 1.7 0.00 0.00 0.00 50 1007.4
20260509203046 72 246 2.6 6.1 0.00 0.00 0.00 47 1007.4
20260509202546 72 236 2.6 8.7 0.00 0.00 0.00 48 1007.4
20260509202046 73 259 2.6 7.0 0.00 0.00 0.00 44 1007.5
20260509201546 75 190 1.7 15.6 0.00 0.00 0.00 45 1007.5
20260509201048 74 227 1.7 3.5 0.00 0.00 0.00 50 1007.4
20260509200546 74 194 2.6 7.0 0.00 0.00 0.00 47 1007.4
20260509200046 74 232 3.5 7.0 0.00 0.00 0.00 48 1007.6
20260509195546 74 238 4.3 9.6 0.00 0.00 0.00 47 1007.6
20260509195046 74 229 3.5 9.6 0.00 0.00 0.00 48 1007.7
20260509194546 74 164 3.5 7.8 0.00 0.00 0.00 45 1007.8
20260509194046 75 248 3.5 8.7 0.00 0.00 0.00 48 1007.9
20260509193546 74 200 2.6 9.6 0.00 0.00 0.00 48 1008.0
20260509193048 73 237 3.5 6.1 0.00 0.00 0.00 51 1008.1
20260509192546 73 202 2.6 7.8 0.00 0.00 0.00 48 1008.2
20260509192046 75 209 1.7 7.8 0.00 0.00 0.00 51 1008.2
20260509191546 74 202 2.6 7.0 0.00 0.00 0.00 52 1008.2
20260509191046 73 158 2.6 7.8 0.00 0.00 0.00 53 1008.4
20260509190546 73 248 2.6 7.8 0.00 0.00 0.00 52 1008.5
20260509190046 73 269 3.5 7.8 0.00 0.00 0.00 53 1008.6
20260509185546 72 195 4.3 7.8 0.00 0.00 0.00 54 1008.7
20260509185048 73 250 3.5 7.8 0.00 0.00 0.00 53 1008.7
20260509184546 72 168 2.6 6.1 0.00 0.00 0.00 59 1008.7
20260509184046 71 225 2.6 7.8 0.00 0.00 0.00 58 1008.9
20260509183546 70 219 3.5 6.1 0.00 0.00 0.00 56 1008.9
20260509183046 70 223 3.5 9.6 0.00 0.00 0.00 58 1008.8
20260509182546 69 197 3.5 11.3 0.00 0.00 0.00 57 1008.9
20260509182046 70 234 4.3 9.6 0.00 0.00 0.00 58 1008.9
20260509181546 69 190 2.6 9.6 0.00 0.00 0.00 56 1009.0
20260509181048 69 184 1.7 6.1 0.00 0.00 0.00 59 1009.1
20260509180546 69 265 1.7 3.5 0.00 0.00 0.00 59 1009.2
20260509180046 68 261 2.6 4.3 0.00 0.00 0.00 58 1009.3
20260509175546 69 254 1.7 7.8 0.00 0.00 0.00 58 1009.4
20260509175048 69 249 0.9 3.5 0.00 0.00 0.00 58 1009.4
20260509174546 69 242 0.9 1.7 0.00 0.00 0.00 63 1009.4
20260509174046 68 159 0.9 1.7 0.00 0.00 0.00 59 1009.5
20260509173546 68 271 0.9 2.6 0.00 0.00 0.00 59 1009.7
20260509173048 68 328 1.7 5.2 0.00 0.00 0.00 62 1009.7
20260509172546 68 306 1.7 4.3 0.00 0.00 0.00 60 1009.8
20260509172046 67 279 1.7 6.1 0.00 0.00 0.00 60 1009.9
20260509171546 67 179 2.6 6.1 0.00 0.00 0.00 60 1009.9
20260509171046 67 227 2.6 7.0 0.00 0.00 0.00 59 1009.9
20260509170546 68 252 2.6 7.0 0.00 0.00 0.00 57 1009.8
20260509170046 69 255 3.5 4.3 0.00 0.00 0.00 58 1009.7
20260509165546 68 190 5.2 9.6 0.00 0.00 0.00 57 1009.7
20260509165048 69 165 4.3 10.4 0.00 0.00 0.00 60 1009.7
20260509164546 68 207 3.5 8.7 0.00 0.00 0.00 59 1009.7
20260509164046 68 198 4.3 8.7 0.00 0.00 0.00 59 1009.8
20260509163546 68 216 4.3 8.7 0.00 0.00 0.00 59 1009.8
20260509163048 67 176 3.5 7.8 0.00 0.00 0.00 60 1009.9
20260509162546 67 244 2.6 11.3 0.00 0.00 0.00 59 1010.0
20260509162046 67 151 1.7 7.0 0.00 0.00 0.00 62 1010.0
20260509161546 66 285 1.7 3.5 0.00 0.00 0.00 61 1010.0
20260509161046 65 175 1.7 6.1 0.00 0.00 0.00 61 1010.0
20260509160546 65 288 2.6 6.1 0.00 0.00 0.00 62 1010.2
20260509160046 65 244 1.7 7.8 0.00 0.00 0.00 62 1010.2
20260509155546 65 234 2.6 3.5 0.00 0.00 0.00 60 1010.1
20260509155048 66 178 4.3 8.7 0.00 0.00 0.00 59 1010.2
20260509154546 67 227 4.3 10.4 0.00 0.00 0.00 58 1010.0
20260509154046 66 194 2.6 11.3 0.00 0.00 0.00 58 1010.0
20260509153546 65 239 4.3 7.0 0.00 0.00 0.00 60 1010.2
20260509153046 65 188 5.2 13.0 0.00 0.00 0.00 60 1010.3
20260509152546 66 207 5.2 8.7 0.00 0.00 0.00 59 1010.3
20260509152046 66 171 6.1 11.3 0.00 0.00 0.00 57 1010.4
20260509151546 67 197 6.1 12.2 0.00 0.00 0.00 57 1010.3
20260509151048 66 171 3.5 9.6 0.00 0.00 0.00 58 1010.2
20260509150546 65 175 3.5 6.1 0.00 0.00 0.00 61 1010.3
20260509150046 65 203 3.5 8.7 0.00 0.00 0.00 57 1010.3
20260509145546 64 161 2.6 5.2 0.00 0.00 0.00 61 1010.2
20260509145046 64 245 3.5 8.7 0.00 0.00 0.00 59 1010.2
20260509144546 63 214 4.3 10.4 0.00 0.00 0.00 61 1010.5
20260509144046 64 185 4.3 11.3 0.00 0.00 0.00 59 1010.4
20260509143546 63 176 4.3 7.0 0.00 0.00 0.00 60 1010.4
20260509143048 63 169 5.2 10.4 0.00 0.00 0.00 62 1010.6
20260509142546 63 162 4.3 9.6 0.00 0.00 0.00 61 1010.6
20260509142046 62 165 2.6 7.8 0.00 0.00 0.00 65 1010.8
20260509141546 62 241 3.5 8.7 0.00 0.00 0.00 64 1010.9
20260509141046 61 169 3.5 10.4 0.00 0.00 0.00 62 1010.9
20260509140546 60 207 3.5 7.8 0.00 0.00 0.00 66 1011.0
20260509140046 60 215 3.5 6.1 0.00 0.00 0.00 64 1011.0
20260509135546 60 192 4.3 7.0 0.00 0.00 0.00 63 1010.9
20260509135048 59 192 4.3 10.4 0.00 0.00 0.00 63 1010.9
20260509134546 59 175 3.5 7.8 0.00 0.00 0.00 64 1011.0
20260509134046 59 181 3.5 7.0 0.00 0.00 0.00 65 1010.9
20260509133546 59 196 4.3 9.6 0.00 0.00 0.00 63 1010.9
20260509133046 58 174 3.5 7.8 0.00 0.00 0.00 63 1010.9
20260509132546 58 192 3.5 7.0 0.00 0.00 0.00 66 1010.9
20260509132046 58 133 5.2 8.7 0.00 0.00 0.00 64 1010.9
20260509131546 58 182 5.2 11.3 0.00 0.00 0.00 64 1010.9
20260509131048 57 169 3.5 8.7 0.00 0.00 0.00 66 1010.9
20260509130546 57 206 4.3 7.0 0.00 0.00 0.00 66 1011.0
20260509130046 57 195 4.3 7.0 0.00 0.00 0.00 67 1011.0
20260509125546 56 202 4.3 7.8 0.00 0.00 0.00 67 1011.1
20260509125046 56 194 3.5 6.1 0.00 0.00 0.00 67 1011.1
20260509124546 56 168 3.5 5.2 0.00 0.00 0.00 66 1011.1
20260509124046 55 182 2.6 5.2 0.00 0.00 0.00 67 1011.2
20260509123546 55 157 3.5 7.0 0.00 0.00 0.00 66 1011.2
20260509123048 55 192 3.5 6.1 0.00 0.00 0.00 66 1011.1
20260509122546 55 175 3.5 8.7 0.00 0.00 0.00 66 1011.1
20260509122046 55 196 3.5 6.1 0.00 0.00 0.00 66 1011.1
20260509121546 55 188 3.5 6.1 0.00 0.00 0.00 65 1011.2
20260509121049 55 178 2.6 5.2 0.00 0.00 0.00 66 1011.2
20260509120546 55 202 2.6 7.0 0.00 0.00 0.00 67 1011.2
20260509120046 54 180 2.6 6.1 0.00 0.00 0.00 66 1011.2
20260509115546 54 163 1.7 4.3 0.00 0.00 0.00 66 1011.1
20260509115048 54 183 2.6 5.2 0.00 0.00 0.00 67 1011.1
20260509114546 54 183 2.6 5.2 0.00 0.00 0.00 67 1011.0
20260509114046 54 166 1.7 4.3 0.00 0.00 0.00 67 1011.0
20260509113546 54 181 1.7 5.2 0.00 0.00 0.00 67 1011.0
20260509113048 54 183 1.7 3.5 0.00 0.00 0.00 69 1010.9
20260509112547 53 191 1.7 4.3 0.00 0.00 0.00 68 1010.9
20260509112046 53 190 2.6 4.3 0.00 0.00 0.00 69 1010.8
20260509111546 53 192 2.6 5.2 0.00 0.00 0.00 68 1010.9
20260509111047 53 167 2.6 5.2 0.00 0.00 0.00 69 1010.8
20260509110547 53 182 2.6 6.1 0.00 0.00 0.00 68 1010.9
20260509110046 53 194 2.6 4.3 0.00 0.00 0.00 70 1010.9
20260509105547 53 170 1.7 5.2 0.00 0.00 0.00 69 1010.8
20260509105049 52 157 0.9 2.6 0.00 0.00 0.00 70 1010.8
20260509104547 52 147 0.9 1.7 0.00 0.00 0.00 71 1010.8
20260509104047 52 144 0.9 3.5 0.00 0.00 0.00 72 1010.8
20260509103547 52 138 0.9 1.7 0.00 0.00 0.00 74 1010.7
20260509103047 52 134 0.0 1.7 0.00 0.00 0.00 71 1010.7
20260509102547 52 167 0.0 2.6 0.00 0.00 0.00 71 1010.7
20260509102047 52 167 0.0 2.6 0.00 0.00 0.00 69 1010.8
20260509101547 52 167 0.0 2.6 0.00 0.00 0.00 69 1010.8
20260509101049 53 167 0.0 1.7 0.00 0.00 0.00 68 1010.6
20260509100547 53 237 0.0 1.7 0.00 0.00 0.00 67 1010.6
20260509100047 53 231 0.0 1.7 0.00 0.00 0.00 66 1010.7
20260509095547 53 240 0.0 1.7 0.00 0.00 0.00 66 1010.6
20260509095047 53 243 0.9 2.6 0.00 0.00 0.00 66 1010.8
20260509094547 53 223 0.9 1.7 0.00 0.00 0.00 64 1010.8
20260509094047 53 185 0.9 2.6 0.00 0.00 0.00 65 1010.8
20260509093547 53 188 1.7 1.7 0.00 0.00 0.00 64 1010.8
20260509093049 53 205 1.7 3.5 0.00 0.00 0.00 64 1010.7
20260509092547 53 179 1.7 4.3 0.00 0.00 0.00 64 1010.7
20260509092047 54 182 1.7 3.5 0.00 0.00 0.00 64 1010.7
20260509091547 54 183 1.7 5.2 0.00 0.00 0.00 63 1010.8
20260509091047 54 184 2.6 5.2 0.00 0.00 0.00 63 1010.9
20260509090547 54 190 2.6 5.2 0.00 0.00 0.00 63 1011.0
20260509090047 54 183 2.6 5.2 0.00 0.00 0.00 64 1011.1
20260509085547 54 170 1.7 3.5 0.00 0.00 0.00 64 1011.1
20260509085049 54 176 1.7 5.2 0.00 0.00 0.00 63 1011.1
20260509084547 54 155 1.7 4.3 0.00 0.00 0.00 64 1011.2
20260509084047 54 169 1.7 3.5 0.00 0.00 0.00 64 1011.2
20260509083547 54 181 1.7 4.3 0.00 0.00 0.00 63 1011.2
20260509083047 54 194 2.6 4.3 0.00 0.00 0.00 63 1011.2
20260509082547 54 182 2.6 4.3 0.00 0.00 0.00 63 1011.3
20260509082047 54 190 2.6 4.3 0.00 0.00 0.00 64 1011.3
20260509081547 54 167 2.6 5.2 0.00 0.00 0.00 64 1011.4
20260509081049 53 174 1.7 3.5 0.00 0.00 0.00 64 1011.4
20260509080547 53 182 1.7 4.3 0.00 0.00 0.00 64 1011.4
20260509080047 53 157 1.7 4.3 0.00 0.00 0.00 64 1011.4
20260509075547 53 161 1.7 6.1 0.00 0.00 0.00 64 1011.4
20260509075047 53 170 2.6 4.3 0.00 0.00 0.00 64 1011.6
20260509074547 53 171 3.5 7.0 0.00 0.00 0.00 63 1011.5
20260509074047 53 162 2.6 6.1 0.00 0.00 0.00 64 1011.5
20260509073547 53 179 1.7 3.5 0.00 0.00 0.00 64 1011.6
20260509073049 53 153 1.7 3.5 0.00 0.00 0.00 63 1011.6
20260509072547 53 150 1.7 4.3 0.00 0.00 0.00 63 1011.6
20260509072047 54 158 1.7 4.3 0.00 0.00 0.00 63 1011.4